COSMOS 2460 (732) (36402 NORAD) Tracking and Keplerian Element Data

This shows tracking and keplerian element data for the satellite.

Feedback or suggestion? Click here.




ElementValue
Catalog36402
NameCOSMOS 2460 (732)
Epoch Orbit6784
Epoch Day322.8176484
Epoch Year2018
RAAN47.1619
Inclination65.6517
Eccentricity0.0001447
Argument of Perigee177.8787
Mean Anonmoly81.9526
Mean Motion2.1310155
Decay Rate-5.6E-07
L11 36402U 10007C 18322.81764840 -.00000056 00000-0 10000-3 0 9993
L22 36402 65.6517 47.1619 0001447 177.8787 81.9526 2.13101550 67840

Live tracking and technical data element details for COSMOS 2460 (732) (NORAD 36402). COSMOS 2460 (732) can be tracked NOW for your location showing map with azimuth and elevation plus other details from your city location.

Track the satellite on the map from your city or location and see movement details for azimuth, elevation, latitude, longitude, range, height, and movement on the map or in text.







IsCatalogInMostPopularTable: catalog: 36402, numindb: 46
Update: records affected: 1



GetName: 36402 COSMOS 2460 (732)

Hit Count: updated at: Mon, 19 Nov 2018 23:51:43 GMT